カタログに戻る

STARLINK-1762

運用中通信VLEO
NORAD 46342·PAYLOAD·🇺🇸 United States

打ち上げ Sep 3, 2020 から Cape Canaveral Space Force Station

Loading…

次のパス (今後24時間)

TLE

最新Source: CelesTrak SupGP

元期: Sep 14, 2026, 20:25 UTC

1 46342C 20062U   26257.85118056  .00060479  00000+0  11359-2 0  2578
2 46342  53.1502 201.0136 0004900  98.6381 348.2396 15.47962044    16

AllMySatでSTARLINK-1762をリアルタイム追跡

Download on the App Store